Regional Weather Roundup
Issued by NWS

Home | Current Version | Previous Version | Text Only | Print | Product List | Glossary On
Versions: 1 2 3 4 5 6 7 8 9 10 11 12 13 14 15 16 17 18 19 20 21 22 23 24 25 26 27 28 29 30 31 32 33 34 35 36 37 38 39 40 41 42 43 44 45 46 47 48 49 50
307
ASUS45 KCYS 242210
RWRWY

WYOMING REGIONAL WEATHER ROUNDUP
NATIONAL WEATHER SERVICE CHEYENNE WY
300 PM MST TUE JAN 24 2017

NOTE:  "FAIR" INDICATES FEW OR NO CLOUDS BELOW 12,000 FEET
WITH NO SIGNIFICANT WEATHER AND/OR OBSTRUCTIONS TO VISIBILITY.

WYZ001-242300-
YELLOWSTONE NATIONAL PARK

CITY           SKY/WX    TMP DP  RH WIND       PRES   REMARKS
LK YELLOWSTONE   N/A     18   7  62 MISG      29.68R
W YELLOWSTONE  NOT AVBL

$$
WYZ002>013-054>058-071-098>099-242300-
NORTHERN WYOMING

CITY           SKY/WX    TMP DP  RH WIND       PRES   REMARKS
JACKSON        PTSUNNY   21  19  93 CALM      29.68R
CODY           LGT SNOW  18  15  88 N12       29.81R FOG     WCI   5
GREYBULL       CLOUDY    24  15  68 NW12      29.82R WCI  13
WORLAND        LGT SNOW  22  19  89 NW14      29.81R FOG     WCI   9
SHERIDAN       LGT SNOW  20  15  81 W6        29.84R WCI  12
BUFFALO        LGT SNOW  18  13  80 N15G23    29.78R WCI   4
GILLETTE       LGT SNOW  19  16  88 N8        29.79R FOG     WCI   9
HULETT         LGT SNOW  19  18  93 MISG      29.80R
NEWCASTLE      CLOUDY    21  16  79 N14       29.74R HAZE    WCI   8

$$
WYZ014>020-022>026-101>103-242300-
CENTRAL WYOMING

CITY           SKY/WX    TMP DP  RH WIND       PRES   REMARKS
BIG PINEY      CLOUDY    16  12  84 S10       29.68R WCI   4
PINEDALE       LGT SNOW  18  12  79 SE7       29.69R VSB 3/4 WCI   8
DUBOIS         NOT AVBL
LANDER         CLOUDY    19  16  88 SE3       29.75R FOG
RIVERTON       LGT SNOW  18  16  92 CALM      29.77R FOG
CASPER         CLOUDY    17  12  80 N7        29.76R WCI   8
DOUGLAS        LGT SNOW  18  12  77 NW18G24   29.75R WCI   2

$$
WYZ021-027>030-104>119-242300-
SOUTHERN WYOMING

CITY           SKY/WX    TMP DP  RH WIND       PRES   REMARKS
EVANSTON       CLOUDY    19  14  81 SW18      29.70R WCI   4
ROCK SPRINGS   LGT SNOW  15  11  83 E6        29.71R FOG     WCI   6
RAWLINS        PTSUNNY   15   5  64 N10       29.69R WCI   2
LARAMIE        LGT SNOW  12   7  80 N17       29.58R WCI  -5
CHEYENNE       FAIR      17  12  80 N10       29.61R WCI   5
TORRINGTON     CLOUDY    23  14  68 N15G22    29.71R WCI  10

$$




USA.gov is the U.S. government's official web portal to all federal, state and local government web resources and services.